Camp Pendleton MCAS (Munn Field) Airport
KNFG : now visible

Airfield :











YOU CAN JOIN US ON...

 
LOGIN :

Register | Disclaimer

   EN    FR    IT 

 









Legend :    VFR   Marginal VFR   IFR   Intensive IFR   Very Intensive IFR
Visi :
Ceiling :
>= 8 km
>= 3000ft
5 to 8 km
1000 to 3000 ft
1500m to 5 km
500 to 1000 ft
800 to 1500m
200 to 500 ft
< 800m
< 200 ft
Symbols :   Thunderstorms  Fog  Heavy snow  Heavy precipitations  Wind > 20 kt






- Airport Elevation : 78 ft


KNFG - Camp Pendleton MCAS (Munn Field)

CURRENT METAR :
  • 090155Z AUTO 22005KT 10SM CLR 22/16 A2991 RMK AO2 SLP127 T02220156 $

EXPIRED METARs :
  • 090055Z AUTO 24007KT 10SM CLR 24/16 A2991 RMK AO2 SLP129 T02440156 $
  • 082355Z AUTO 23007KT 10SM CLR 25/16 A2992 RMK AO2 SLP130 T02500156 10283 20250 58012 $

TAF TAF KNFG
Valid from the 08 at 21:00 until the 09 at 21:00 UTC


0821/0921 VRB05KT 9999 SKC QNH2992INS
TEMPO 0821/0902 22010KT
BECMG 0906/0908 OVC010 T24/0821Z QNH2993INS T16/0913Z
KZLA FIR / North America



MET'MAP, your aeronautical weather chart ! - Copyright ORBIFLY December 2007 - Disclaimer

ORBIFLY MET'MAP TEAM :

Programming & Development : Alexandra Zaïnal
Concept & original design : Baudouin d'Aumeries
Assistance for programming : Marc-Olivier Méhu
Technical & hardware support : Manuel Goepfert

Contact : metmap@orbifly.com




SOURCES & CREDITS :

   NOAA       Earth
Advisory